Find KZ-11 Y8 Stage 3

NORAD ID: 67071 Int'l Des: 2025-296 Owner: EXPACE Country: CN Debris
LEO

Re-entered — Dec 25, 2025

Loading 3D Globe...

About KZ-11 Y8 Stage 3

KZ-11 Y8 Stage 3 (NORAD 67071) is a satellite launched Dec 13, 2025 by EXPACE of CN. It re-entered the atmosphere on Dec 25, 2025. with a mass of 1000.00 kg.

Altitude History

Loading altitude history...

Two-Line Element Set

1 67071U 25296C 25358.32930102 .10629896 77682-5 39091-3 0 9999
2 67071 41.3001 37.0779 0331361 35.4881 326.7526 15.73922215 1695
Epoch: Dec 24, 2025 • Age: 4051 hours

Current Status

Position data unavailable
Launch Date Dec 13, 2025
Age 0.4 years
Decay Date Dec 25, 2025
Type debris

Technical Details

Classification Launch Vehicle Stage
Mass 1000.00 kg
Dry Mass 1000.00 kg
Total Mass 1000.00 kg
Length 2.50 m
Diameter 2.20 m
Span 2.50 m
Shape Cyl
Manufacturer CASIC
Phase Status Unknown Transfer Status
Owner/State EXPACE/CN

Most Searched